Showing default

OPS 5798 (TRANSIT 5B-4), 897

Orbit data source: Space-Track

OPS 5798 (TRANSIT 5B-4), 897 is a payload satellite owned by USN BuWeps (US) in LEO that was launched on Tue, 06 Oct 1964 UTC via a THOR ABLESTAR launch vehicle from the Air Force Western Test Range (AFWTR). Payload-class satellites include a variety of spacecraft equipped with specific instruments for various scientific and technological missions. These include communications satellites like Starlink; space stations such as the ISS; scientific satellites like the Hubble; Earth observation satellites from companies like Planet Labs, Umbra, and HawkEye 360; GPS; miniature CubeSats for education and research; and military/defense satellites.

Loading next visibility...
Identifier
897, 1964-063B
Orbit
LEO
Country
Flag of USUS
Related business
Manufacturer
NAFI
Mission
Spacecraft
Bus & Motor
TRANSIT 5, Unknown motor
Mass
~54 kg wet, ~54 kg dry
Launch date (UTC)
1964-10-06 (61 years ago)
Launch vehicle
THOR ABLESTAR
Launch site
Air Force Western Test Range (AFWTR)
Object type
Payload
Rocket body
Debris
Shape & HBR
Unknown
Radar Cross Section
Medium (>0.1 m² and <1 m²)

Expand to show TLE details & history
Last TLE update: 17 hours ago

TLE from 17 hours ago
0 OPS 5798 (TRANSIT 5B-4)
1 00897U 64063B   25310.80620413  .00000107  00000-0  14577-3 0  9993
2 00897  90.2339  70.2746 0021500 104.0108  48.5107 13.53706698 15133
Epoch: 2025-11-06T19:20Z
TLE epoch observation values (Epoch: 2025-11-06T19:20:56.036Z)
Latitude
27.32996°
Longitude
-86.09786°
Altitude
1,051.48 km
Speed
7.334 km/s
True Right ascension
16h 41m 34s
True Declination
27° 11' 44"
Sunlit
Object was in daylight at epoch
Visualization orbit readout
Latitude
Unknown
Longitude
Unknown
Altitude
Unknown
Speed
Unknown
Apparent Right ascension
Unknown
Apparent Declination
Unknown
Sunlit
N/A
Visualization observer readout
Local Sidereal Time
08:12:48
Azimuth
Unknown
Elevation
Unknown
Doppler factor
Unknown
Orbital elements
Apogee altitude
1,071.679 km
Perigee altitude
1,039.714 km
Semi-major axis
7,433.833 km
Eccentricity
0.00215
Inclination
90.2339°
RAAN
70.2746°
Arg. of periapsis
104.0108°
True anomaly
48.69558°
Mean anomaly
48.5107°
Eccentric anomaly
48.60311°
Mean motion
3.38629 °/min
Orbital period
106.31 mins
BSTAR
0.00014577
Loading maneuver chart data...
Computing Atmospheric mass density...
Loading historical data...
Loading historical data...
Loading historical data...
Loading historical data...
Loading historical data...
Loading historical data...
Loading historical data...
Other satellites on launch #63 in the year 1964 (1964-10-06 UTC)

Documentation

Showing up to 5 results
|